Precipitable_Water
0.65 0.65 0.69 0.73 0.77 0.80 0.87 1.00 1.05 1.16 1.22 1.33 1.39 1.43 1.38 1.43 1.49 1.64 1.58 1.65 1.59 1.61 1.65 1.60 1.57 1.58 1.53 1.52 1.56 1.53 1.43 1.36 1.11 1.10 1.15 1.24 1.28 1.31 1.51 1.61 1.59 1.54 1.49
0.60 0.63 0.63 0.67 0.73 0.70 0.72 0.77 0.86 0.90 0.99 1.08 1.15 1.30 1.35 1.30 1.34 1.34 1.50 1.48 1.42 1.37 1.41 1.49 1.53 1.58 1.51 1.52 1.42 1.32 1.32 1.29 1.20 1.12 1.28 1.27 1.38 1.53 1.50 1.49 1.44 1.47 1.41
0.50 0.51 0.58 0.63 0.65 0.68 0.69 0.74 0.73 0.75 0.74 0.78 0.90 0.99 1.15 1.19 1.23 1.22 1.26 1.34 1.37 1.35 1.37 1.38 1.42 1.45 1.48 1.51 1.48 1.46 1.47 1.43 1.43 1.38 1.35 1.48 1.52 1.56 1.49 1.44 1.41 1.41 1.39
0.43 0.45 0.48 0.49 0.53 0.62 0.65 0.67 0.68 0.70 0.67 0.68 0.71 0.74 0.78 0.88 1.01 1.08 1.15 1.12 1.09 1.14 1.27 1.40 1.37 1.40 1.44 1.31 1.47 1.37 1.41 1.46 1.56 1.44 1.40 1.42 1.48 1.48 1.45 1.35 1.34 1.37 1.32
0.37 0.41 0.42 0.44 0.46 0.47 0.48 0.59 0.65 0.65 0.69 0.74 0.71 0.68 0.70 0.72 0.76 0.78 0.87 0.96 0.98 0.95 1.03 1.09 1.22 1.32 1.35 1.33 1.35 1.35 1.40 1.29 1.29 1.38 1.34 1.35 1.41 1.35 1.34 1.38 1.34 1.31 1.33
0.35 0.34 0.37 0.37 0.39 0.42 0.47 0.45 0.46 0.49 0.56 0.58 0.67 0.76 0.79 0.78 0.74 0.71 0.71 0.70 0.75 0.80 0.83 0.91 1.00 1.04 1.09 1.09 1.09 1.17 1.22 1.12 1.16 1.35 1.21 1.20 1.12 1.31 1.34 1.25 1.23 1.13 1.16
0.33 0.34 0.33 0.31 0.31 0.34 0.37 0.38 0.39 0.42 0.44 0.45 0.47 0.52 0.54 0.68 0.79 0.81 0.82 0.79 0.75 0.73 0.72 0.78 0.86 0.91 0.93 0.99 0.99 1.07 1.14 1.20 1.13 1.06 1.08 1.07 1.05 1.19 1.23 1.24 1.23 1.22 1.18
0.32 0.29 0.29 0.30 0.32 0.34 0.35 0.36 0.37 0.38 0.39 0.40 0.40 0.40 0.43 0.45 0.50 0.56 0.62 0.73 0.80 0.82 0.83 0.84 0.82 0.83 0.89 0.91 0.91 0.89 0.88 0.88 0.93 0.96 0.94 0.96 0.99 1.05 1.03 1.03 1.07 1.08 1.07
0.31 0.32 0.34 0.34 0.33 0.35 0.34 0.35 0.37 0.36 0.35 0.37 0.39 0.40 0.40 0.41 0.43 0.44 0.47 0.48 0.51 0.62 0.73 0.80 0.82 0.81 0.80 0.76 0.83 0.82 0.82 0.82 0.86 0.85 0.81 0.80 0.78 0.80 0.84 0.82 0.75 0.77 0.79
0.33 0.34 0.37 0.38 0.38 0.36 0.36 0.36 0.36 0.36 0.35 0.36 0.36 0.39 0.40 0.38 0.41 0.42 0.42 0.43 0.41 0.44 0.47 0.51 0.63 0.68 0.76 0.79 0.79 0.75 0.71 0.79 0.81 0.78 0.75 0.71 0.71 0.73 0.76 0.81 0.85 0.82 0.84
0.32 0.34 0.36 0.39 0.39 0.41 0.40 0.38 0.36 0.33 0.33 0.34 0.34 0.36 0.38 0.39 0.40 0.40 0.40 0.39 0.39 0.40 0.41 0.43 0.46 0.50 0.55 0.63 0.68 0.68 0.70 0.76 0.75 0.76 0.73 0.74 0.76 0.78 0.80 0.86 0.91 0.90 0.83
0.30 0.31 0.32 0.35 0.35 0.37 0.39 0.38 0.37 0.36 0.33 0.32 0.32 0.32 0.36 0.37 0.38 0.39 0.39 0.39 0.39 0.37 0.38 0.39 0.42 0.42 0.42 0.47 0.49 0.52 0.56 0.60 0.64 0.65 0.67 0.67 0.71 0.74 0.72 0.70 0.70 0.70 0.68
0.28 0.29 0.30 0.31 0.33 0.33 0.32 0.34 0.35 0.36 0.34 0.32 0.32 0.31 0.32 0.35 0.37 0.37 0.37 0.38 0.39 0.38 0.39 0.38 0.37 0.37 0.38 0.38 0.40 0.44 0.45 0.45 0.47 0.49 0.51 0.52 0.57 0.59 0.60 0.58 0.58 0.58 0.59
0.27 0.26 0.28 0.28 0.29 0.31 0.32 0.34 0.35 0.35 0.34 0.33 0.32 0.31 0.33 0.34 0.35 0.37 0.38 0.39 0.40 0.40 0.40 0.39 0.39 0.38 0.37 0.37 0.36 0.38 0.42 0.44 0.44 0.44 0.45 0.50 0.53 0.52 0.50 0.51 0.47 0.48 0.47
0.26 0.26 0.26 0.27 0.28 0.29 0.30 0.32 0.33 0.37 0.37 0.35 0.34 0.33 0.32 0.31 0.34 0.37 0.38 0.39 0.41 0.42 0.41 0.41 0.39 0.38 0.36 0.35 0.35 0.36 0.37 0.40 0.42 0.44 0.44 0.46 0.47 0.48 0.48 0.49 0.47 0.45 0.41
0.24 0.24 0.25 0.26 0.28 0.29 0.29 0.29 0.33 0.35 0.38 0.38 0.37 0.36 0.36 0.36 0.37 0.39 0.40 0.41 0.42 0.42 0.40 0.38 0.37 0.37 0.36 0.35 0.34 0.35 0.37 0.37 0.38 0.41 0.42 0.44 0.45 0.46 0.46 0.46 0.44 0.41 0.39
0.24 0.25 0.26 0.27 0.27 0.28 0.28 0.28 0.26 0.30 0.35 0.37 0.37 0.37 0.37 0.37 0.39 0.40 0.42 0.43 0.44 0.44 0.40 0.39 0.38 0.38 0.38 0.38 0.37 0.36 0.36 0.38 0.40 0.40 0.41 0.42 0.44 0.46 0.45 0.44 0.42 0.41 0.40
0.24 0.26 0.27 0.27 0.28 0.29 0.29 0.29 0.29 0.28 0.28 0.31 0.36 0.37 0.38 0.39 0.42 0.44 0.45 0.46 0.44 0.45 0.45 0.44 0.43 0.43 0.42 0.41 0.40 0.40 0.40 0.40 0.40 0.41 0.42 0.44 0.44 0.44 0.43 0.42 0.40 0.39 0.38
0.25 0.26 0.28 0.28 0.29 0.30 0.31 0.30 0.30 0.30 0.31 0.32 0.35 0.37 0.40 0.42 0.46 0.47 0.47 0.45 0.44 0.44 0.45 0.46 0.47 0.47 0.46 0.46 0.45 0.44 0.43 0.42 0.42 0.42 0.44 0.45 0.46 0.46 0.43 0.42 0.41 0.41 0.39
0.27 0.28 0.28 0.28 0.29 0.31 0.32 0.30 0.30 0.31 0.31 0.33 0.34 0.36 0.40 0.44 0.43 0.44 0.45 0.45 0.44 0.44 0.45 0.45 0.47 0.48 0.49 0.49 0.48 0.46 0.45 0.44 0.45 0.46 0.47 0.46 0.48 0.48 0.44 0.42 0.41 0.39 0.40
0.28 0.28 0.27 0.28 0.30 0.31 0.31 0.29 0.31 0.32 0.32 0.34 0.37 0.41 0.43 0.42 0.42 0.42 0.42 0.42 0.43 0.43 0.44 0.45 0.46 0.47 0.48 0.48 0.48 0.47 0.47 0.48 0.49 0.49 0.50 0.49 0.49 0.47 0.47 0.46 0.44 0.43 0.43
0.28 0.29 0.27 0.28 0.30 0.31 0.31 0.30 0.32 0.33 0.34 0.36 0.39 0.42 0.43 0.43 0.41 0.41 0.42 0.43 0.44 0.46 0.47 0.46 0.45 0.46 0.48 0.48 0.48 0.46 0.45 0.46 0.49 0.53 0.53 0.53 0.53 0.52 0.50 0.48 0.44 0.42 0.40
0.27 0.27 0.27 0.29 0.30 0.32 0.31 0.31 0.32 0.33 0.35 0.39 0.41 0.42 0.42 0.41 0.41 0.42 0.43 0.44 0.46 0.47 0.49 0.48 0.48 0.49 0.51 0.51 0.50 0.49 0.47 0.48 0.51 0.56 0.55 0.54 0.53 0.52 0.51 0.45 0.40 0.39 0.38
0.26 0.27 0.28 0.29 0.30 0.31 0.30 0.30 0.32 0.34 0.37 0.41 0.41 0.41 0.42 0.42 0.42 0.44 0.45 0.47 0.48 0.48 0.48 0.49 0.50 0.49 0.50 0.51 0.52 0.53 0.54 0.54 0.56 0.57 0.57 0.56 0.53 0.52 0.48 0.42 0.41 0.39 0.38
0.24 0.25 0.26 0.28 0.29 0.31 0.30 0.30 0.32 0.34 0.39 0.41 0.41 0.41 0.42 0.41 0.42 0.43 0.46 0.47 0.47 0.48 0.49 0.50 0.51 0.52 0.52 0.52 0.53 0.54 0.56 0.56 0.57 0.58 0.57 0.55 0.52 0.48 0.44 0.42 0.40 0.39 0.39
0.21 0.23 0.24 0.27 0.30 0.32 0.30 0.30 0.32 0.35 0.39 0.41 0.41 0.42 0.42 0.42 0.43 0.44 0.45 0.46 0.48 0.48 0.49 0.51 0.51 0.52 0.53 0.53 0.54 0.55 0.56 0.56 0.57 0.57 0.57 0.54 0.48 0.45 0.43 0.41 0.40 0.40 0.39
Wind_Speed
26 27 29 30 31 32 34 35 37 37 39 37 35 33 37 37 38 45 49 45 47 48 48 48 49 49 48 48 47 47 47 47 49 47 45 43 41 40 39 38 37 38 38
22 27 29 32 30 33 34 35 37 38 41 42 42 34 35 36 36 30 35 44 51 45 41 44 46 47 48 48 46 47 46 47 46 47 44 43 42 40 39 39 40 40 40
17 22 27 29 33 34 34 36 36 39 39 41 45 49 50 50 46 39 28 34 29 31 39 41 42 43 43 44 46 47 47 47 47 47 45 44 44 43 42 42 41 41 40
16 17 21 25 29 33 37 39 38 39 40 41 42 44 46 49 51 49 40 39 39 38 33 34 38 41 42 45 44 44 42 43 45 47 46 45 44 45 44 43 44 44 37
19 18 20 23 26 30 34 36 39 41 42 43 43 43 44 44 45 46 48 49 45 46 48 48 47 40 40 43 34 44 39 44 47 45 43 44 43 48 44 43 41 40 39
20 21 23 25 25 27 29 33 37 39 41 42 44 46 46 46 46 46 47 46 46 47 49 47 47 48 48 49 47 44 45 46 44 40 50 42 44 40 45 41 40 39 39
21 23 25 26 27 28 29 31 33 36 39 42 42 43 45 46 47 48 47 46 46 46 47 49 50 50 47 47 48 50 48 45 48 48 49 47 47 44 43 39 39 39 39
24 25 25 25 27 28 30 31 32 34 36 39 42 44 45 45 46 47 47 48 48 47 47 45 44 47 48 49 49 50 49 48 46 47 49 47 47 44 42 43 42 40 41
26 27 27 27 27 28 30 30 32 33 35 37 40 40 42 44 45 46 46 47 47 49 49 51 52 51 50 48 48 48 49 48 47 45 45 45 44 43 44 43 42 42 43
28 30 30 30 29 30 29 29 31 33 34 36 37 38 41 42 42 45 46 47 48 48 47 48 48 49 49 48 49 49 49 49 48 49 49 47 45 43 44 46 47 46 44
30 32 32 32 33 30 30 31 32 32 33 34 35 36 37 38 41 42 44 45 46 47 48 47 46 46 48 50 50 51 53 53 53 51 50 49 47 47 47 47 46 44 45
32 33 33 34 34 33 33 32 31 31 31 31 32 33 34 36 38 40 42 44 46 48 49 49 50 51 51 50 49 49 49 49 48 48 48 46 46 46 44 44 44 44 44
33 34 35 35 35 35 34 33 31 30 30 30 30 31 32 34 36 38 40 42 43 44 46 48 49 49 49 49 48 48 47 45 45 44 42 43 42 41 41 39 38 39 38
34 36 37 37 37 36 34 32 31 30 30 29 30 30 31 32 34 36 38 39 41 43 45 46 47 47 48 48 48 48 47 47 47 47 46 43 41 39 39 38 36 36 35
35 37 38 38 38 37 33 31 30 29 29 30 30 31 32 33 34 36 38 39 41 43 45 46 46 45 46 46 46 46 47 46 46 46 44 43 42 40 38 37 36 34 33
37 38 39 39 38 36 34 31 29 29 29 29 30 32 32 35 36 37 37 38 38 39 39 40 41 43 44 45 45 45 45 45 45 45 44 43 41 39 37 36 34 33 32
37 39 40 39 38 36 33 31 30 29 29 29 30 31 33 35 36 36 35 34 33 33 33 34 34 35 37 39 40 40 40 41 42 42 41 41 40 38 36 34 32 31 30
38 39 39 39 37 34 32 30 29 29 28 28 29 31 33 34 35 33 32 31 29 27 27 28 29 30 30 30 31 33 34 35 35 35 35 35 35 34 32 30 28 27 26
38 39 39 39 36 33 30 29 29 29 28 28 29 30 32 34 32 29 28 26 26 26 25 25 25 26 26 27 27 27 27 28 28 29 29 29 30 29 27 26 25 24 22
38 39 40 38 35 32 29 30 30 28 27 27 29 31 33 31 28 26 25 25 25 25 25 25 24 24 23 23 23 23 23 24 23 23 22 22 23 23 22 21 20 18 17
38 39 40 37 34 31 29 30 30 27 27 28 30 32 32 29 27 26 25 25 25 25 25 24 24 24 23 23 22 21 21 21 21 21 20 19 18 18 17 16 15 14 13
39 39 39 36 33 30 29 31 29 27 28 30 31 31 29 27 26 25 25 25 25 25 24 24 24 24 24 23 22 21 20 19 19 20 20 19 18 15 14 13 12 12 11
40 39 38 35 32 30 29 30 28 27 29 30 31 29 27 27 26 26 26 26 25 25 25 25 24 23 22 21 20 20 20 19 19 19 20 20 17 15 13 11 11 11 11
39 39 38 35 31 29 29 29 27 28 29 30 29 27 28 28 27 26 24 24 24 24 24 22 20 19 17 17 16 16 17 18 20 20 21 19 17 14 12 11 11 11 10
39 38 37 34 30 28 28 28 27 28 29 29 27 27 28 27 26 23 21 21 20 20 18 17 14 11 9 9 8 11 13 17 20 22 21 17 15 14 13 12 11 10 11
38 38 36 33 29 27 28 28 27 28 28 27 27 27 26 24 21 19 18 16 17 17 15 11 7 6 3 6 9 13 15 19 21 21 18 16 14 13 13 12 11 12 14
Wind_Direction
253 254 254 254 255 255 256 257 259 258 260 263 266 255 254 258 255 251 249 250 252 252 255 256 256 257 258 261 260 260 262 264 269 272 272 274 275 277 278 278 280 282 283
263 257 258 257 260 258 259 260 260 263 263 263 259 261 253 260 258 262 242 250 252 254 257 259 258 258 257 258 260 259 261 264 266 270 271 272 273 275 277 278 280 281 281
281 268 262 263 261 261 262 262 263 265 266 266 264 264 263 265 262 272 275 258 258 265 263 264 259 260 260 260 260 259 262 263 265 267 270 272 272 274 277 279 281 281 280
303 295 277 272 268 266 265 264 265 266 266 266 268 267 267 265 268 267 266 265 270 268 263 265 263 259 259 266 258 261 263 266 265 265 269 271 271 275 276 278 280 281 276
311 305 297 288 282 274 270 267 266 266 266 267 267 268 269 269 270 270 270 269 268 266 269 266 261 265 261 267 267 269 261 267 271 268 269 271 273 276 275 278 275 277 273
317 310 302 301 295 287 281 274 271 270 268 268 267 267 268 268 268 269 270 269 268 268 265 267 261 269 268 267 269 266 270 269 266 263 263 271 279 276 278 273 274 273 273
333 322 312 303 296 292 288 285 280 275 273 270 269 269 269 268 269 270 270 269 269 268 266 268 265 265 269 265 268 268 269 266 268 271 271 276 278 274 275 274 275 275 274
337 332 324 315 304 298 293 289 286 281 278 275 272 271 270 270 272 271 271 270 269 267 267 267 265 265 267 267 267 267 267 268 268 269 273 275 274 272 272 274 274 272 276
338 335 329 323 315 306 298 293 288 286 283 280 276 275 272 272 272 272 272 271 269 268 267 267 267 266 267 269 266 265 268 269 267 269 271 273 273 271 272 272 271 273 276
335 334 331 325 320 314 306 298 293 291 286 283 280 276 275 274 274 272 273 271 270 270 270 269 268 267 265 267 267 266 266 266 267 270 271 271 272 271 272 271 271 272 274
332 330 329 326 322 316 311 305 301 296 290 287 284 282 280 277 275 275 274 272 271 270 270 269 269 268 268 268 269 268 267 266 267 268 269 268 268 271 272 272 272 268 274
330 329 328 326 323 318 313 308 303 299 296 294 290 287 282 280 279 278 277 275 274 273 270 269 269 270 269 269 269 268 267 267 267 267 266 265 267 268 269 270 270 271 274
329 329 328 326 323 320 315 309 304 301 298 296 294 291 290 288 286 283 280 278 277 275 273 272 271 270 269 267 268 267 268 266 263 263 265 265 266 268 267 269 270 272 273
328 328 327 325 323 320 316 310 305 302 299 298 297 296 295 294 292 288 285 283 280 278 276 273 271 269 268 267 266 266 265 263 263 263 264 263 264 264 265 267 269 269 271
328 328 327 325 323 320 316 310 305 302 300 299 299 299 299 298 297 295 291 288 285 282 279 275 272 269 269 268 266 265 264 263 262 261 260 260 259 261 262 264 266 267 269
328 328 327 326 324 322 317 312 307 302 301 300 300 301 301 301 301 299 296 292 288 286 281 277 274 272 269 268 266 265 264 262 262 260 258 256 257 257 260 262 263 265 265
329 329 328 327 325 322 319 315 311 308 303 302 303 304 304 304 305 303 300 296 293 289 283 280 277 273 271 268 267 265 263 261 260 257 256 253 252 254 255 258 261 263 264
330 329 329 328 326 323 320 317 315 312 308 306 308 308 308 308 307 306 303 301 298 293 288 284 279 275 273 271 269 267 264 262 259 256 253 250 248 247 250 253 256 259 259
330 330 330 329 326 323 321 319 318 316 312 309 310 313 313 312 309 308 306 302 300 298 294 290 286 280 275 272 271 269 265 261 257 251 249 246 242 241 244 248 252 253 253
331 330 331 329 327 324 321 322 320 318 315 314 315 316 316 315 312 310 308 306 303 300 296 292 287 284 278 273 271 268 266 260 253 244 241 238 232 232 237 242 244 246 245
330 331 331 329 327 324 322 323 322 319 318 318 318 319 318 315 312 310 309 309 308 304 300 295 289 284 278 273 270 266 263 256 244 234 228 224 220 223 228 232 232 233 231
330 330 330 329 326 324 322 324 323 320 320 321 321 321 320 317 315 312 310 310 309 306 304 300 294 286 278 272 267 263 258 247 233 222 216 211 210 214 216 218 219 219 216
331 331 330 328 326 324 323 325 323 322 322 323 324 323 322 320 317 315 312 310 310 308 305 301 296 289 279 271 263 257 249 233 220 210 202 197 200 200 203 207 207 205 209
331 331 330 328 326 324 324 325 324 324 325 326 326 325 324 323 320 316 315 316 315 314 310 305 299 292 281 270 258 249 229 215 202 196 190 190 190 194 197 194 194 192 191
330 330 330 328 325 323 325 325 325 326 327 328 328 328 328 327 326 324 321 322 325 327 325 321 314 305 286 261 232 201 190 184 181 178 177 180 182 185 185 184 181 182 177
330 330 329 327 325 323 325 326 325 327 329 330 331 332 332 333 334 336 334 334 336 341 345 354 5 17 78 128 143 154 157 160 162 164 171 174 176 176 177 177 177 172 166